TITAN 3C TRANSTAGE DEB, 1915

Orbit data source: Space-Track

TITAN 3C TRANSTAGE DEB, 1915 is space debris in LEO originally from a launch on Fri, 15 Oct 1965 UTC launched from the Air Force Eastern Test Range (AFETR). Debris objects in space refer to the collection of defunct objects orbiting the Earth. Examples of debris include non-operational satellites, rocket bodies, and fragments generated from explosions, collisions, or faulty payload assembly.

Loading next visibility...
Identifier
1915, 1965-082FZ
Orbit
LEO
Country
Flag of USUS
Related business
Manufacturer
Unknown
Mission
Spacecraft
Bus & Motor
Unknown
Mass
Unknown
Launch date (UTC)
1965-10-15 (61 years ago)
Launch vehicle
Unknown
Launch site
Air Force Eastern Test Range (AFETR)
Object type
Payload
Rocket body
Debris
Shape & HBR
Unknown shape, 0.1 m
Radar Cross Section
Small (<0.1 m²)

Expand to show TLE details & history
Last TLE update: 21 hours ago

TLE from 21 hours ago
0 TITAN 3C TRANSTAGE DEB
1 01915U 65082FZ  26126.42589159  .00000414  00000-0  78103-4 0  9999
2 01915  31.8756 178.2526 0028993 260.2731  99.4633 14.58449785209326
Epoch: 2026-05-06T10:13Z
TLE epoch observation values (Epoch: 2026-05-06T10:13:17.033Z)
Latitude
-0.00001°
Longitude
160.64506°
Altitude
700.242 km
Speed
7.506 km/s
True Right ascension
11h 53m 00s
True Declination
0° 00' 00"
Sunlit
Object was in full shadow at epoch
Visualization orbit readout
Latitude
Unknown
Longitude
Unknown
Altitude
Unknown
Speed
Unknown
Apparent Right ascension
Unknown
Apparent Declination
Unknown
Sunlit
N/A
Visualization observer readout
Local Sidereal Time
15:26:56
Azimuth
Unknown
Elevation
Unknown
Doppler factor
Unknown
Orbital elements
Apogee altitude
722.337 km
Perigee altitude
681.283 km
Semi-major axis
7,079.947 km
Eccentricity
0.0029
Inclination
31.8756°
RAAN
178.2526°
Arg. of periapsis
260.2731°
True anomaly
99.79082°
Mean anomaly
99.4633°
Eccentric anomaly
99.62708°
Mean motion
3.64333 °/min
Orbital period
98.81 mins
BSTAR
0.000078103

Documentation

Showing up to 5 results
|